AB9HP Weather Reports


Display with metric or nautical units.
time (UTC)temp
F
wind
direction
speed
MPH
gust
MPH
rain 1hr
in
rain 24hr
in
rain mn
in
humidity
%
barometer
mb
20260906190008 75 65 4.0 14.0 0.00 0.00 0.00 67 1017.9
20260906184504 74 115 2.0 12.0 0.00 0.00 0.00 68 1018.0
20260906183105 75 87 5.0 12.0 0.00 0.00 0.00 67 1018.2
20260906181556 74 44 3.0 12.0 0.00 0.00 0.00 71 1018.1
20260906180053 74 83 4.0 13.0 0.00 0.00 0.00 69 1018.2
20260906174548 73 76 5.0 13.0 0.00 0.00 0.00 70 1018.3
20260906173044 73 96 5.0 11.0 0.00 0.00 0.00 66 1018.6
20260906171541 72 343 3.0 11.0 0.00 0.00 0.00 67 1018.7
20260906170037 72 20 4.0 10.0 0.00 0.00 0.00 71 1018.8
20260906164537 72 101 2.0 11.0 0.00 0.00 0.00 71 1018.8
20260906163032 71 350 4.0 11.0 0.00 0.00 0.00 73 1018.9
20260906161529 71 61 4.0 9.0 0.00 0.00 0.00 72 1019.1
20260906160027 70 352 5.0 11.0 0.00 0.00 0.00 74 1018.9
20260906154523 69 10 2.0 11.0 0.00 0.00 0.00 77 1018.9
20260906153028 69 41 4.0 9.0 0.00 0.00 0.00 77 1018.7
20260906151518 68 334 2.0 9.0 0.00 0.00 0.00 80 1018.9
20260906150019 67 335 2.0 7.0 0.00 0.00 0.00 82 1019.0
20260906144520 67 3 5.0 10.0 0.00 0.00 0.00 82 1018.9
20260906143009 66 28 4.0 8.0 0.00 0.00 0.00 82 1018.8
20260906141506 66 62 3.0 7.0 0.00 0.00 0.00 82 1018.6
20260906140005 65 1 3.0 9.0 0.00 0.86 0.00 83 1018.4
20260906134602 65 36 4.0 9.0 0.00 0.86 0.00 82 1018.3
20260906133115 65 77 2.0 10.0 0.00 0.86 0.00 84 1018.6
20260906131558 64 60 4.0 9.0 0.00 0.86 0.00 85 1018.3
20260906130055 63 62 4.0 11.0 0.00 0.86 0.00 85 1018.6
20260906124550 63 42 2.0 9.0 0.00 0.86 0.00 85 1018.2
20260906123047 63 58 1.0 8.0 0.00 0.86 0.00 86 1018.1
20260906121544 63 64 1.0 5.0 0.00 0.86 0.00 85 1017.9
20260906120140 62 338 1.0 4.0 0.00 0.86 0.00 86 1017.8
20260906114537 62 49 2.0 5.0 0.00 0.86 0.00 87 1017.3
20260906113034 62 39 1.0 4.0 0.00 0.86 0.00 87 1017.2
20260906111537 62 48 3.0 6.0 0.00 0.86 0.00 87 1017.0
20260906110033 62 98 1.0 7.0 0.00 0.86 0.00 87 1016.9
20260906104534 63 48 3.0 6.0 0.00 0.87 0.00 86 1016.7
20260906103028 63 32 3.0 7.0 0.00 0.87 0.00 87 1016.5
20260906101527 63 39 2.0 7.0 0.00 0.87 0.00 88 1016.4
20260906100116 64 27 2.0 7.0 0.00 0.87 0.00 89 1016.4
20260906094514 64 49 3.0 7.0 0.00 1.26 0.00 89 1016.3
20260906093007 65 79 4.0 9.0 0.00 1.26 0.00 89 1016.1
20260906091504 65 60 3.0 8.0 0.00 1.26 0.00 87 1016.2
20260906084557 66 92 3.0 13.0 0.00 1.26 0.00 83 1016.2
20260906083054 67 30 6.0 12.0 0.00 1.26 0.00 83 1016.3
20260906081551 67 54 6.0 11.0 0.00 1.26 0.00 83 1016.1
20260906080047 67 49 5.0 11.0 0.00 1.26 0.00 83 1016.2
20260906074544 68 66 4.0 11.0 0.00 1.26 0.00 85 1016.1
20260906073040 68 53 4.0 8.0 0.00 1.26 0.00 84 1016.1
20260906071537 68 78 3.0 8.0 0.00 1.26 0.00 87 1015.8
20260906070035 68 73 3.0 6.0 0.00 1.26 0.00 88 1015.8
20260906064532 68 61 3.0 8.0 0.00 1.26 0.00 87 1016.0
20260906063030 68 84 0.0 6.0 0.00 1.26 0.00 88 1016.1
20260906061528 68 72 0.0 7.0 0.00 1.26 0.00 88 1016.0
20260906060028 68 352 1.0 4.0 0.00 1.26 0.00 88 1015.8
20260906054523 68 343 0.0 6.0 0.00 1.26 0.00 88 1015.7
20260906053019 68 349 1.0 5.0 0.00 1.26 0.00 87 1015.6
20260906051516 69 11 1.0 5.0 0.00 1.26 0.00 86 1015.6
20260906050014 69 63 3.0 6.0 0.00 1.26 0.00 85 1015.4
20260906044512 69 301 2.0 5.0 0.00 1.26 0.00 85 1015.4
20260906043007 70 53 3.0 7.0 0.00 1.26 0.00 84 1015.1
20260906041506 70 49 2.0 5.0 0.00 1.26 0.00 84 1015.0
20260906040125 70 58 1.0 5.0 0.00 1.26 0.00 84 1015.1
20260906034557 70 102 0.0 3.0 0.00 1.26 1.26 84 1015.1
20260906033106 70 77 1.0 6.0 0.00 1.26 1.26 85 1014.9
20260906031553 71 84 2.0 4.0 0.00 1.26 1.26 85 1014.8
20260906030049 71 89 2.0 9.0 0.00 1.26 1.26 85 1014.7
20260906024548 71 70 5.0 8.0 0.00 1.26 1.26 85 1014.7
20260906023045 71 96 3.0 8.0 0.00 1.26 1.26 88 1014.7
20260906021550 71 49 5.0 7.0 0.00 1.26 1.26 89 1014.6
20260906020050 72 47 4.0 7.0 0.00 1.26 1.26 89 1014.5
20260906014546 72 65 3.0 10.0 0.00 1.26 1.26 88 1014.1
20260906013037 73 72 4.0 13.0 0.00 1.26 1.26 88 1014.0
20260906011535 73 54 7.0 13.0 0.00 1.26 1.26 89 1013.9
20260906010033 73 70 5.0 12.0 0.00 1.26 1.26 89 1013.9
20260906004531 73 60 7.0 13.0 0.00 1.26 1.26 89 1013.7
20260906003128 74 53 4.0 10.0 0.00 1.26 1.26 88 1013.4
20260906001526 75 23 5.0 13.0 0.00 1.26 1.26 88 1013.2
20260906000025 76 83 4.0 12.0 0.00 1.26 1.26 88 1013.4
20260905234521 76 31 8.0 16.0 0.00 1.26 1.26 86 1013.5
20260905233019 77 48 8.0 13.0 0.00 1.26 1.26 86 1013.2
20260905231517 78 35 4.0 10.0 0.00 1.26 1.26 85 1013.0
20260905230014 78 38 5.0 10.0 0.00 1.26 1.26 84 1012.9
20260905224511 79 82 3.0 8.0 0.00 1.26 1.26 85 1012.6
20260905223009 79 50 4.0 11.0 0.00 1.26 1.26 84 1012.5
20260905221508 80 53 6.0 10.0 0.00 1.26 1.26 84 1012.1
20260905220111 79 122 4.0 12.0 0.00 1.26 1.26 85 1011.9
20260905214501 80 111 5.0 12.0 0.00 1.26 1.26 84 1011.9
20260905213059 81 56 6.0 11.0 0.00 1.26 1.26 82 1011.8
20260905211602 81 30 4.0 9.0 0.00 1.26 1.26 82 1011.8
20260905210057 81 341 6.0 12.0 0.00 1.26 1.26 81 1012.1
20260905204553 81 11 4.0 10.0 0.00 1.26 1.26 81 1012.1
20260905203056 81 351 3.0 8.0 0.00 1.26 1.26 82 1012.4
20260905201553 81 7 2.0 7.0 0.00 1.26 1.26 83 1012.4
20260905200047 82 339 4.0 7.0 0.00 1.26 1.26 81 1012.5
20260905194544 82 324 3.0 6.0 0.00 1.26 1.26 80 1012.4
20260905193059 82 301 2.0 6.0 0.00 1.26 1.26 80 1012.6
20260905191542 82 32 3.0 8.0 0.00 1.26 1.26 80 1012.6
20260905190039 83 272 3.0 7.0 0.00 1.26 1.26 79 1012.7